Theta_e
303 303 303 303 305 307 308 309 309 311 311 314 317 320 320 320 320 320 318 316 315 313 312 315 315 314 315 314 313 313 312 312 307 308 308 307 306 306 304 302 299 298 298
302 302 302 302 303 303 303 304 306 306 307 306 308 311 312 312 312 315 314 313 313 313 312 309 309 305 307 307 307 307 306 307 306 302 304 302 300 301 300 298 296 295 296
301 301 300 300 301 301 301 302 303 303 303 303 303 303 303 305 306 307 306 307 307 306 305 304 304 303 303 303 302 302 302 300 301 300 299 298 298 297 296 296 295 295 295
299 299 299 298 299 299 300 300 301 301 301 301 301 301 301 300 299 300 300 301 301 300 300 300 300 299 299 299 299 299 299 298 298 297 296 295 295 295 293 292 292 294 292
298 297 296 297 297 297 297 297 298 298 299 299 299 299 299 298 296 298 299 299 299 298 298 297 298 295 291 294 296 298 297 297 296 295 294 293 293 291 290 291 289 291 292
297 295 295 295 295 295 295 295 296 296 296 297 297 297 298 296 294 293 294 297 296 295 296 296 296 289 290 290 290 293 296 296 295 294 293 291 291 290 290 289 289 287 286
295 294 294 294 294 293 293 293 293 294 295 295 295 296 296 297 293 293 292 295 295 296 295 295 294 292 290 294 291 292 292 293 293 294 291 291 290 290 289 288 288 287 286
293 293 292 291 292 292 292 292 292 292 292 292 293 293 293 294 292 292 291 294 295 295 295 294 293 293 293 291 292 292 293 293 293 292 292 292 291 291 290 289 287 286 287
292 291 291 290 290 290 290 290 290 291 291 291 290 291 292 292 291 290 291 292 292 292 293 293 292 292 290 289 290 290 291 291 290 290 290 290 290 289 288 287 285 283 282
291 290 289 289 288 289 289 289 289 290 288 289 289 291 288 290 290 289 290 291 291 291 292 291 284 288 289 289 291 291 289 290 289 288 289 289 288 288 287 287 286 282 282
288 286 286 286 285 287 287 287 287 287 287 288 287 289 288 287 288 289 290 291 290 289 289 289 290 288 288 290 290 291 289 290 288 288 288 287 286 286 286 285 284 283 281
285 283 283 283 284 284 284 286 285 286 286 286 286 287 287 287 286 289 290 290 289 289 287 288 288 289 290 290 289 289 289 287 287 286 285 284 283 282 281 281 281 281 281
281 280 281 281 282 282 284 284 285 285 285 285 284 285 285 285 286 286 286 289 288 287 288 288 288 287 287 285 285 284 283 284 284 283 281 281 279 278 279 278 278 278 278
281 280 280 280 282 281 282 283 284 284 284 283 283 284 283 284 285 285 285 287 285 287 287 286 286 284 283 281 280 280 280 279 279 279 279 278 278 277 276 275 275 274 276
279 279 281 281 281 281 281 283 282 283 283 283 283 282 282 283 283 285 284 285 285 284 284 285 284 283 280 279 277 276 277 276 276 275 275 275 275 275 274 273 272 273 273
281 281 281 281 280 279 280 281 281 283 283 283 283 282 283 283 284 283 282 281 282 283 282 281 279 278 277 276 276 274 273 273 272 273 273 273 272 272 272 271 271 271 271
279 279 279 276 278 279 279 279 280 280 280 283 282 282 282 282 282 281 280 278 279 279 278 277 276 275 274 274 273 272 271 270 270 271 270 270 270 270 270 270 270 270 271
273 269 276 277 277 277 277 277 276 277 278 280 279 280 281 280 278 278 278 276 275 274 274 273 273 272 272 272 271 270 270 270 269 268 268 267 268 269 270 269 270 268 269
273 274 274 274 274 273 274 274 275 274 275 276 277 277 277 276 275 274 275 274 272 271 271 270 270 270 269 269 268 268 268 267 267 268 267 267 267 269 268 268 269 264 264
270 267 269 273 273 273 273 274 274 275 276 276 276 277 275 274 273 270 270 270 270 269 269 268 267 267 267 268 268 269 269 268 268 268 267 267 267 268 267 267 266 267 267
271 271 268 272 273 274 274 274 275 275 275 275 275 274 272 272 270 269 268 268 268 268 267 267 267 266 267 267 268 268 267 267 266 266 267 267 266 267 266 267 268 267 266
267 267 268 268 269 270 271 272 272 273 273 272 272 272 270 269 268 267 266 266 265 265 266 267 266 266 265 266 267 268 267 267 267 267 266 265 267 266 267 267 267 266 266
266 266 266 266 266 265 268 269 270 271 271 270 269 267 267 267 266 266 264 264 264 264 264 266 265 264 264 264 265 266 267 266 265 264 266 266 266 266 266 265 264 264 264
264 264 265 265 265 266 267 268 268 267 269 268 267 267 266 265 265 263 263 263 263 262 262 263 263 264 263 264 265 265 264 262 262 262 264 265 265 265 265 264 263 262 263
263 263 264 265 265 266 266 267 267 267 267 267 266 265 265 264 263 263 262 262 261 262 261 261 261 262 262 262 263 263 261 258 260 259 263 263 262 261 261 261 262 262 261
262 262 263 264 264 265 266 266 266 266 266 266 265 265 264 264 263 263 261 261 261 261 261 261 261 261 262 264 265 263 264 262 259 257 264 264 263 262 262 261 260 261 260
Wind_Speed
7 6 6 6 6 5 5 5 5 4 5 4 4 3 2 0 1 0 0 0 1 1 1 3 3 1 2 2 2 2 4 5 8 8 1 1 3 5 5 5 6 7 5
7 6 7 7 6 6 6 6 6 6 6 6 5 4 3 3 2 1 2 2 3 4 4 4 4 2 3 3 3 5 5 5 5 8 4 3 4 3 5 6 6 5 6
7 8 7 7 7 7 6 6 6 6 6 6 7 7 6 5 5 4 4 4 4 4 4 4 5 4 4 3 4 4 4 3 5 5 4 1 2 3 4 5 5 6 5
8 8 8 7 7 6 6 6 6 6 5 5 5 5 4 5 4 4 4 4 4 4 4 4 4 4 5 5 5 6 5 5 5 5 4 4 4 2 3 4 4 3 6
8 8 7 6 6 7 7 7 6 6 5 5 5 5 4 3 2 4 4 4 5 5 5 5 6 6 6 6 4 6 6 5 4 5 5 4 4 3 4 1 4 7 7
8 8 6 6 6 6 5 5 5 5 5 5 5 6 6 3 6 7 7 6 5 6 6 6 6 5 7 8 8 8 6 6 7 5 5 6 6 4 3 4 5 5 4
7 6 6 6 6 6 5 4 5 5 5 5 5 6 7 7 7 9 8 7 7 7 7 6 5 4 5 6 8 9 9 8 6 4 6 5 4 3 3 5 5 7 7
7 7 6 6 6 6 7 7 7 5 6 5 5 6 7 6 8 9 9 8 8 8 8 7 6 6 6 5 5 5 5 4 4 3 4 4 4 1 4 6 7 9 8
4 4 4 5 6 7 7 8 7 6 6 6 5 7 7 7 8 10 9 6 6 8 6 6 6 6 4 6 5 6 6 5 3 3 3 2 4 2 2 4 3 5 5
1 2 3 4 5 6 6 7 5 6 7 6 7 6 6 8 8 10 7 3 6 5 5 3 2 4 3 6 6 5 5 5 5 3 4 4 3 1 2 2 4 5 4
2 1 2 3 3 4 4 4 5 5 5 5 4 4 4 5 7 11 10 5 4 4 3 3 2 3 5 4 4 3 3 2 4 2 1 1 1 1 2 3 4 4 4
1 1 2 2 2 2 3 3 2 3 3 3 4 4 3 5 7 9 10 6 4 3 3 2 3 3 3 5 4 5 6 4 1 1 1 1 2 1 3 4 4 4 5
1 2 2 2 2 2 3 4 3 3 3 4 4 4 5 4 5 10 11 9 6 3 3 7 10 14 14 12 13 11 7 3 2 1 1 2 4 3 3 3 2 5 4
3 2 2 3 2 2 2 2 2 2 2 2 2 2 3 2 3 4 5 5 6 4 3 4 9 11 12 7 5 7 5 5 4 3 2 2 2 2 3 4 3 5 3
4 3 4 3 3 2 2 2 2 2 2 2 2 2 2 2 3 6 7 5 4 3 2 1 1 2 4 4 5 5 4 4 4 4 3 2 2 3 3 4 3 3 4
5 3 2 2 2 2 2 2 2 2 2 3 1 2 1 2 5 6 8 9 7 3 1 0 2 3 3 3 3 3 4 5 5 3 3 3 3 3 4 4 3 4 4
5 3 3 3 2 2 1 2 3 3 3 3 4 5 4 6 7 6 6 4 10 1 3 3 3 3 4 3 3 4 4 4 3 4 3 3 3 4 4 4 4 3 3
4 2 3 2 2 1 2 2 2 3 3 3 3 3 6 7 7 8 6 1 3 5 5 4 4 4 3 3 4 4 3 3 4 3 4 4 4 4 4 4 3 3 4
3 2 2 1 1 0 2 2 2 2 2 2 2 2 5 6 6 7 9 3 3 4 4 5 4 4 4 4 4 3 4 4 4 3 4 4 4 3 3 3 3 3 4
1 1 2 2 2 2 3 2 3 3 3 3 3 3 1 1 2 3 4 4 5 5 5 5 4 4 4 4 4 3 3 3 4 4 3 3 3 3 3 3 3 4 3
1 1 2 2 2 3 3 3 3 3 3 2 1 1 1 0 3 3 4 5 5 5 5 4 4 4 4 4 3 4 4 3 3 2 3 3 3 2 2 2 3 2 3
2 2 2 2 2 3 2 2 3 2 2 3 3 5 7 4 5 5 5 5 4 4 3 4 4 4 4 4 3 3 3 3 2 2 2 2 2 3 2 3 4 4 5
1 2 2 1 2 2 3 2 3 2 3 4 4 3 3 4 5 5 5 4 4 3 3 3 4 3 3 2 3 3 3 3 2 2 2 3 3 4 4 5 5 5 5
2 2 2 1 2 2 2 2 1 2 3 4 4 4 4 5 5 5 4 4 3 3 3 2 3 3 3 2 2 2 2 1 1 2 3 4 4 4 5 5 5 6 5
2 2 2 2 2 1 1 1 2 3 4 4 4 5 5 5 5 4 4 3 3 3 2 2 1 2 2 2 3 3 3 2 2 1 3 6 7 6 5 5 5 5 7
2 2 1 1 1 1 1 2 3 4 4 4 4 5 5 5 5 4 4 3 3 2 2 1 2 2 2 2 2 4 4 4 4 4 4 5 5 5 5 6 6 5 6
Wind_Direction
81 77 69 64 53 58 57 52 30 27 15 14 11 354 358 82 44 355 329 30 252 187 228 254 250 229 218 221 218 234 241 241 256 275 307 243 247 254 250 292 307 309 304
90 90 71 59 50 50 44 36 26 25 20 15 4 16 33 17 9 312 226 218 255 255 261 255 251 233 230 222 221 225 231 232 255 263 277 270 271 291 290 297 303 299 300
81 79 74 62 56 49 41 33 30 20 18 14 12 11 2 355 343 341 334 314 284 272 266 259 262 245 250 240 236 238 232 230 234 242 255 245 292 302 296 291 293 299 299
81 75 67 55 53 50 42 37 30 21 19 14 12 357 349 344 346 339 322 307 302 297 294 282 279 260 259 251 239 238 229 226 228 239 248 258 258 252 280 294 295 303 307
93 81 70 62 51 43 37 33 30 26 16 5 347 340 329 321 310 295 268 266 261 262 246 241 243 243 250 249 232 231 224 230 230 239 248 249 247 238 250 279 291 315 309
84 78 66 60 54 44 36 30 32 23 16 4 356 338 326 322 315 296 281 279 269 265 265 252 242 225 237 237 241 256 247 237 238 237 256 255 269 280 282 297 312 325 318
90 80 57 37 32 16 1 15 23 11 0 3 355 345 331 326 335 309 292 277 270 263 262 261 257 241 244 241 226 234 225 228 248 252 252 248 277 270 308 298 301 298 288
57 46 32 14 1 352 352 358 353 350 350 345 337 329 318 315 332 324 314 286 275 267 262 259 254 256 234 229 239 243 245 240 235 233 258 286 261 271 300 306 305 302 298
58 38 15 2 343 342 342 341 336 330 330 336 322 321 319 316 338 332 327 307 292 288 285 279 273 274 268 221 222 230 226 215 181 195 219 239 222 194 324 300 297 304 309
141 33 352 337 321 319 327 325 324 322 316 322 327 330 332 324 339 334 328 296 293 295 299 293 230 274 261 230 236 244 239 229 188 180 189 194 208 137 46 315 302 288 294
106 5 317 315 303 309 315 310 308 312 307 315 317 327 338 348 338 337 330 307 302 310 326 344 346 305 287 283 246 269 290 158 167 159 171 224 217 244 45 12 345 305 286
89 352 325 317 308 298 286 293 299 325 317 330 337 341 355 354 3 2 1 3 354 347 12 14 23 37 64 76 82 84 97 84 75 117 181 200 319 19 26 351 329 324 308
184 232 266 294 300 314 319 333 328 344 346 341 338 337 342 353 354 360 6 19 23 42 49 70 81 80 79 68 58 52 36 23 15 309 33 36 32 358 355 347 339 334 292
212 230 246 248 241 236 233 238 253 265 283 294 316 333 334 346 8 3 359 358 10 23 35 67 82 81 77 67 45 42 38 23 15 21 30 41 21 1 14 2 351 341 304
221 223 226 237 244 265 257 278 291 291 293 325 338 326 331 14 7 37 29 9 3 37 58 28 49 87 69 56 61 45 35 31 40 36 14 28 43 26 15 360 9 354 4
223 208 216 238 241 256 254 225 239 16 48 30 22 280 15 285 44 59 43 11 341 330 342 276 64 62 64 56 57 70 42 30 23 19 36 25 22 18 24 13 12 17 5
256 233 207 221 231 242 253 271 248 185 28 22 52 37 18 60 50 34 30 355 17 351 95 81 77 65 63 64 57 50 57 42 20 28 22 26 17 31 17 15 9 356 348
239 255 226 214 220 198 231 243 268 252 231 202 69 314 108 74 43 4 329 19 30 47 65 76 78 72 65 70 65 62 62 54 50 34 32 28 22 17 17 15 10 348 358
229 219 227 217 198 318 241 228 247 244 251 253 200 115 62 71 55 22 32 52 86 77 72 73 64 67 68 68 67 65 56 51 34 33 33 28 20 2 19 5 358 5 328
183 181 255 223 182 225 231 233 231 233 235 235 218 223 176 267 26 41 43 60 76 78 76 79 71 69 70 69 64 56 64 53 41 35 29 24 21 7 19 359 6 352 359
315 273 324 278 258 258 258 253 256 253 247 230 225 258 185 157 104 88 82 73 79 83 85 85 79 70 64 65 60 59 55 56 37 27 21 24 7 21 359 359 356 4 354
320 303 282 278 279 256 254 259 251 245 219 165 123 70 84 93 102 102 95 87 79 75 66 85 81 65 48 51 46 55 51 47 39 25 39 21 18 28 15 25 14 16 13
300 289 278 280 283 278 250 244 239 213 166 136 121 111 103 104 106 107 109 105 98 91 67 73 87 82 67 51 27 17 38 45 31 347 30 44 42 44 35 39 26 23 20
308 305 303 290 267 250 243 225 199 154 138 130 122 121 120 118 117 117 115 114 107 94 82 79 68 77 72 56 55 51 67 68 47 33 13 64 60 48 50 49 39 29 27
301 300 280 268 264 245 210 173 145 136 133 133 130 129 126 124 123 125 126 122 115 126 120 100 89 110 91 91 82 83 86 81 78 44 66 72 74 64 54 50 37 41 35
279 268 267 252 237 226 170 146 132 132 135 133 134 138 140 139 139 143 145 148 144 134 141 160 183 183 151 121 135 142 142 127 96 58 68 73 73 65 62 56 48 52 44